map of KLHQ home
KLHQ - Airport
Location
City:  Lancaster, Ohio, United States
Name:Fairfield County Airport
ICAO:KLHQ
FAA LID:LHQ

Details
Type:Airport (Airfield)
Use:Public/Civil
Latitude:3945'20"N (39.755638)
Longitude:8239'26"W (-82.657095)
Datum:WGS 1984
Elevation:868 ft (265 m)
Variation:7.28W (WMM2015v2 magnetic declination)
-0.01 annual change
Runways:1
Longest:5004 × 75 ft (1525 × 23 m), paved

Time
Time Zone:UTC-5 (DST-4)
Local Time:

Weather
METAR:KLHQ 041353Z AUTO 15007KT 10SM CLR 04/02 A2999 RMK AO2 SLP160 T00440022

Related Locations
Nearby:
Farthest:YAUG: 11390 mi / 18331 km
Augusta [Augusta Airport], WA, AU

Find:

   beyond  
but within

Other Information
Maps:
NOTAMs:
Links:
Sources:

  
  • flag of United States
  • flag of Ohio
  

Sectional Chart

Flight Planning
at skyvector.com

Satellite Image

Google Maps Satellite view

 

Copyright © 2004-2019 Karl L. Swartz. All rights reserved.
The Great Circle Mapper name and logo are trademarks of the Great Circle Mapper.
All other trademarks mentioned herein belong to their respective owners.
Please see credits for attibutions and further copyright information.

  Follow gcmap on Facebook Follow gcmap on Twitter GCmap on LinkedIn

hCard Microformat

Geo Microformat